Weather in Arnsberg

Germany     51°23′44″N   8°03′56″E
temp.,
°C
wind,
m/s
gust,
m/s
humid.,
%
clouds,
%
prec.,
mm/h
press.,
hPa
HPBL,
m
17 may, tue
tue1723:00+13wsw23947 0.2 102056
02:00+12ssw2294100 0.2 102017
05:00+12ssw229493 0.0 102016
08:00+15sw238989 0.0 1021152
11:00+18wnw2470100 0.0 1022543
14:00+19w2266100 0.0 1021749
17:00+19ssw0070100 0.0 102141
20:00+18ese227624 0.0 102061
18 may, wed
wed1823:00+14se2283100 0.0 102128
02:00+16sse2369100 0.0 102178
05:00+14sse35825 0.0 102176
08:00+18sse2672100 0.0 1022186
11:00+24sw23495 0.0 10221354
14:00+28wnw023983 0.0 10212356
17:00+22e2471100 0.0 1021119
20:00+21sse386788 0.0 1020187
19 may, thu
thu1923:00+19sse3866100 0.0 1020181
02:00+19s51367100 0.0 1020357
05:00+18s41269100 0.0 1019281
08:00+19s5136399 0.0 1019485
11:00+24ssw5846100 0.0 1019853
14:00+26wsw3548100 0.1 10181409
17:00+26ssw4559100 0.1 10181232
20:00+22ssw5973100 0.6 1017388
20 may, fri
fri2023:00+16wsw1198100 5.3 102011
02:00+16w2499100 6.6 1021270
05:00+14w2299100 0.1 102169
08:00+16wsw119374 0.1 1021346
11:00+20ne1268100 0.0 1019756
14:00+19wnw1388100 2.0 1017300
17:00+17nw91397100 4.2 1016822
20:00+15wsw3795100 4.8 1017659
21 may, sat
sat2123:00+13w499589 0.2 1019559
02:00+11sw279796 0.3 1019183
05:00+12sw51195100 0.0 1018648
08:00+12sw51185100 0.0 1019682
11:00+17w61059100 0.0 10191456
14:00+19w694527 0.0 10182099
17:00+19wnw694746 0.0 10181928
20:00+15nw48675 0.0 1018521